Regional Weather Roundup
Issued by NWS

Home | Current Version | Previous Version | Graphics & Text | Print | Product List | Glossary On
Versions: 1 2 3 4 5 6 7 8 9 10 11 12 13 14 15 16 17 18 19 20 21 22 23 24 25 26 27 28 29 30 31 32 33 34 35 36 37 38 39 40 41 42 43 44 45 46 47 48 49 50
000
ASUS43 KTOP 231708
RWRKS

WEATHER ROUNDUP FOR KANSAS
NATIONAL WEATHER SERVICE GOODLAND KS
1200 PM CDT SAT JUL 23 2016

NOTE:  "FAIR" INDICATES FEW OR NO CLOUDS BELOW 12,000 FEET WITH NO
SIGNIFICANT WEATHER AND/OR OBSTRUCTIONS TO VISIBILITY.

KSZ001>006-013>018-027>032-041>047-231800-
NORTHWEST KANSAS

CITY           SKY/WX    TMP DP  RH WIND       PRES   REMARKS
GOODLAND       SUNNY     89  60  37 NW7       29.96S
HAYS           CLOUDY    91  63  38 S17       29.87S
HILL CITY      CLOUDY    91  63  39 S14G22    29.86F
RUSSELL        CLOUDY    92  65  40 S17G25    29.86F
$$

KSZ061>065-074>080-084>089-231800-
SOUTHWEST KANSAS

CITY           SKY/WX    TMP DP  RH WIND       PRES   REMARKS
DODGE CITY     MOSUNNY   92  62  36 S18       29.93F
ELKHART          N/A     95  58  29 S13         N/A
GARDEN CITY    CLOUDY    89  62  40 S14       29.92S
GREAT BEND     MOSUNNY   93  63  36 S15       29.87F
LIBERAL        SUNNY     97  57  26 SW22G28   29.97S HX  95
PRATT          MOSUNNY   94  60  32 S18G24    29.93F
$$

KSZ066>073-081>083-090>101-231800-
SOUTHEAST KANSAS

CITY           SKY/WX    TMP DP  RH WIND       PRES   REMARKS
CHANUTE        SUNNY     92  73  53 S13       29.95F HX 100
COFFEYVILLE    SUNNY     96  71  44 S10       29.96F HX 103
HUTCHINSON     MOSUNNY   96  66  37 S17G24    29.91F HX  99
MEDICINE LODGE   N/A     98  62  30 S15G26    29.90F HX  99
NEWTON         PTSUNNY   91  69  48 S14       29.94F HX  96
PARSONS        SUNNY     93  72  50 S10       29.97F HX 101
WICHITA INTL   PTSUNNY   97  66  36 SW15G21   29.92F HX 100
WICHITA JABRA  MOSUNNY   94  71  47 S12       29.93F HX 101
WICHITA MCCONL MOSUNNY   94  67  41 SW12      29.93F HX  98
WINFIELD       SUNNY     98  67  36 SW15G22   29.94F HX 102
$$

KSZ007>012-019>026-033>040-048>060-102>105-231800-
NORTHEAST KANSAS

CITY           SKY/WX    TMP DP  RH WIND       PRES   REMARKS
CONCORDIA      CLOUDY    85  70  60 S13       29.86S
EMPORIA        PTSUNNY   93  70  46 S9        29.94F HX  99
LAWRENCE       PTSUNNY   88  75  65 SE8       29.92F HX  97
MANHATTAN      CLOUDY    92  71  50 S9        29.87F HX  98
MARYSVILLE     CLOUDY    88  70  55 S17G25    29.85F
OLATHE IND     PTSUNNY   89  74  60 S13       29.95F HX  98
OLATHE EXE     CLOUDY    86  74  67 S10       29.95F
SALINA         PTSUNNY   92  68  45 S16       29.87F HX  96
TOPEKA BILLARD PTSUNNY   91  70  49 S14       29.90F HX  96
TOPEKA FORBES  PTSUNNY   92  72  51 S12       29.92F HX  99
$$




USA.gov is the U.S. government's official web portal to all federal, state and local government web resources and services.